Location: Antin
(43.3330°N, 0.2804°E)
Time: 22:16:02
(UTC+00:00)

Cosmos 1535 Rocket - Pass Details

Date: 16 October 2021
Orbit: 948 x 1004 km, 83.0° (Epoch: 04 December)

Event Time Altitude Azimuth Distance (km) Brightness Sun altitude
Rises 18:52:30 0° 178° (S) 3,639 7.4 -18.7°
Reaches altitude 10° 18:54:59 10° 176° (S) 2,704 6.7 -19.1°
Maximum altitude 19:01:09 71° 94° (E) 1,035 4.4 -20.2°
Drops below altitude 10° 19:07:26 10° 12° (NNE) 2,760 6.8 -21.4°
Sets 19:09:59 0° 10° (N) 3,720 7.5 -21.8°
